Location: Unspecified
(48.5910°N, 12.0210°E)
Time: 09:08:12
(UTC+00:00)

Daily predictions for brighter satellites

Satellite Brightness Start Highest point End
(mag) Time Altitude Azimuth Time Altitude Azimuth Time Altitude Azimuth
USA 234 3.9 17:26:16 10° E 17:32:28 47° N 17:38:39 10° WNW
ATLAS 3B R/B 4.4 17:28:29 10° WNW 17:34:12 27° NNW 17:39:49 10° NE
MOS 1 4.3 17:29:38 10° SSE 17:35:14 68° ENE 17:40:52 10° N
Cosmos 1833 Rocket 2.9 17:31:31 10° SSW 17:37:09 80° WNW 17:42:50 10° NNE
ISS -1.6 17:36:07 10° SSE 17:37:30 12° SE 17:38:53 10° ESE
Cosmos 2360 Rocket 3.6 17:33:53 10° N 17:38:17 22° NE 17:42:40 10° E
Cosmos 1980 Rocket 2.4 17:36:46 10° NNW 17:42:26 77° WSW 17:48:02 10° SSE
SL-27 R/B 3.7 17:39:44 10° SW 17:42:54 43° WNW 17:46:08 10° N
Iridium 96 4.1 17:41:31 10° N 17:44:53 68° E 17:47:48 10° S
Cosmos 1315 Rocket 3.8 17:41:32 10° NNW 17:45:35 55° W 17:49:38 10° S
Resurs 01 Rocket 3.3 17:43:18 10° E 17:45:56 16° ENE 17:48:33 10° NNE
Meteor 1-15 Rocket 4.4 17:40:44 10° S 17:46:33 63° E 17:52:24 10° NNE
DMSP B5D1-3 4.5 17:43:44 10° NNE 17:48:50 66° ESE 17:53:54 10° S
Lacrosse 5 3.2 17:45:50 10° WNW 17:50:23 32° N 17:54:55 10° ENE
SJ-6B 3.6 17:47:47 10° SE 17:51:08 30° ENE 17:54:34 10° N
Abrixas rocket 2.0 17:48:41 10° W 17:51:49 82° S 17:54:45 12° E
H-2A R/B 4.0 17:50:18 10° S 17:54:03 46° W 17:57:48 10° NNW
YAOGAN 6 3.2 17:51:01 10° SE 17:54:16 34° ENE 17:57:29 10° N
COSMOS 2487 3.0 17:52:25 10° S 17:55:39 36° ESE 17:58:54 10° NE
Cosmos 1503 Rocket 4.1 17:54:57 10° NNW 18:00:16 88° WSW 18:05:30 10° SSE
BREEZE-M DEB (TANK) 4.3 18:00:35 10° SE 18:02:26 14° ESE 18:05:14 10° ENE
CZ-2C R/B 3.8 17:57:48 10° NNE 18:02:26 83° WNW 18:06:57 10° SSW
Cosmos 1758 Rocket 4.4 17:58:53 10° N 18:02:48 30° ENE 18:06:39 10° SE
Cosmos 2219 Rocket 4.1 18:00:23 10° N 18:03:33 15° NNE 18:06:42 10° ENE
BREEZE-M TANK 3.8 17:53:18 10° W 18:06:19 66° SSW 18:09:33 15° ESE
SL-16 R/B 2.3 18:01:10 10° NNW 18:06:49 62° ENE 18:12:26 10° SE
Cosmos 1707 3.0 18:03:43 10° NNW 18:07:34 72° W 18:11:23 10° S
Cosmos 1992 Rocket 4.1 18:02:29 10° S 18:07:34 54° ESE 18:12:40 10° NNE
Cosmos 2333 Rocket 4.1 18:04:41 10° N 18:07:56 15° NNE 18:11:10 10° ENE
Iridium 51 3.8 18:08:13 10° N 18:11:42 71° E 18:15:10 10° S
Cosmos 1626 Rocket 3.9 18:07:30 10° NNW 18:11:57 70° W 18:16:19 10° S
USA 186 2.5 18:10:20 16° SE 18:12:17 30° ENE 18:14:57 10° N
Cosmos 2322 Rocket 2.3 18:06:46 10° NNW 18:12:28 64° ENE 18:18:08 10° SE
Cosmos 1953 Rocket 4.4 18:09:15 10° N 18:13:11 30° ENE 18:16:08 15° SE
Cosmos 2228 4.3 18:14:02 17° ESE 18:15:11 19° E 18:18:11 10° NE
Resurs 1-3 4.5 18:14:10 16° ESE 18:16:58 30° ENE 18:20:50 10° N
Cosmos 1805 4.3 18:13:50 10° SE 18:17:04 25° E 18:20:20 10° NNE
HJ-1C 3.4 18:17:08 10° S 18:20:30 82° WSW 18:23:53 10° NNW
Cosmos 1816 Rocket 4.5 18:14:29 10° S 18:20:40 87° E 18:26:58 10° N
Envisat 3.3 18:18:32 10° S 18:23:35 69° WSW 18:28:40 10° NNW
Cosmos 1674 3.6 18:20:17 10° N 18:23:44 30° ENE 18:25:15 23° ESE
Cosmos 1939 Rocket 2.9 18:20:56 10° SSE 18:24:59 60° ENE 18:29:04 10° N
FREGAT/IRIS 3.4 18:23:22 10° S 18:26:14 51° W 18:29:08 10° NNW
In-Cosmos 22 4.1 18:20:56 10° N 18:26:30 82° E 18:32:09 10° SSE
Cosmos 1544 3.3 18:24:14 10° SSW 18:27:56 76° W 18:31:40 10° N
SL-24 R/B - RUBIN 2 3.7 18:23:45 10° SSW 18:28:19 54° ESE 18:32:38 10° NE
Iridium 2 3.5 18:26:24 10° N 18:30:13 80° E 18:34:00 10° S
Cosmos 2058 Rocket 4.2 18:30:51 23° ESE 18:31:34 24° E 18:35:13 10° NE
BREEZE-M DEB (TANK) 4.2 18:18:06 10° W 18:33:56 87° N 18:36:30 24° E
Cosmos 2237 Rocket 4.2 18:32:26 10° N 18:35:04 13° NNE 18:37:42 10° ENE
GP-B 3.2 18:31:49 10° N 18:36:17 82° W 18:40:43 10° S
BREEZE-M DEB (TANK) 3.5 18:30:44 10° SW 18:37:46 30° SSE 18:38:51 26° SE
USA 267 3.5 18:32:55 10° ENE 18:39:12 48° SE 18:45:29 10° SSW
CZ-2D R/B 4.0 18:36:11 10° S 18:40:00 54° W 18:43:51 10° NNW
Landsat 4 4.3 18:39:03 10° NNE 18:42:18 33° E 18:42:18 33° E
Cosmos 968 Rocket 3.9 18:37:46 10° NNW 18:42:54 62° WSW 18:48:03 10° S
Aureole 2 Rocket 3.6 18:39:54 10° NW 18:43:21 42° WSW 18:46:32 10° S
Meteor 2-5 Rocket 4.2 18:38:25 10° NNW 18:44:21 67° W 18:50:12 10° S
Timation 2 Rocket 4.3 18:39:00 10° S 18:45:36 52° ESE 18:52:15 10° NE
Spot 2 Rocket 3.9 18:45:21 28° ESE 18:47:26 42° ENE 18:52:11 10° N
Cosmos 1634 Rocket 4.1 18:42:11 10° NNW 18:48:31 79° W 18:54:46 10° S
NOAA 11 4.1 18:43:46 14° SSE 18:48:34 73° ENE 18:54:01 10° N
Meteor 1-22 Rocket 4.3 18:42:54 10° S 18:48:53 70° E 18:54:42 10° NNE
H-2A R/B 2.9 18:48:39 26° E 18:49:41 29° ENE 18:54:00 10° N
ERS-2 4.4 18:50:54 13° NE 18:50:54 13° NE 18:51:48 10° NNE
ERS-1 Rocket 4.5 18:52:46 19° ENE 18:53:05 19° ENE 18:56:31 10° NNE
ARGOS 3.8 18:51:49 30° ESE 18:53:31 37° ENE 18:58:27 10° N
Cosmos 1777 Rocket 4.0 18:49:25 10° NNW 18:54:43 65° ENE 18:57:11 31° SE
COSMOS 2455 2.8 18:49:15 10° SSW 18:55:09 61° ESE 19:01:05 10° NE
Cosmos 2237 4.5 18:50:27 10° NNW 18:56:01 51° NE 18:58:15 33° ESE
CENTAUR R/B 4.5 18:51:40 10° WNW 18:57:22 27° NNW 19:03:45 10° NE
USA 229 DEB 3.7 18:51:33 10° SSW 18:57:58 52° ESE 19:04:38 10° NE
USA 229 3.7 18:51:40 10° SSW 18:58:05 52° ESE 19:04:44 10° NE
Meteor 1-24 Rocket 4.1 18:52:59 10° NNW 18:59:01 75° W 19:05:01 10° S
deb Kosmos-1763 4.3 18:55:27 10° SSW 18:59:10 72° WNW 19:02:55 10° NNE
Cosmos 332 Rocket 3.6 19:04:54 10° SSW 19:09:43 80° ESE 19:14:32 10° NNE
ISS -2.7 19:10:12 10° SW 19:12:21 36° SW 19:12:21 36° SW
Cosmos 1766 3.9 19:09:46 10° SSW 19:13:38 57° WNW 19:17:35 10° N
USA 234 3.2 19:12:04 35° ESE 19:15:06 81° NNE 19:21:41 10° NW
Nadezhda 4 Rocket 4.2 19:14:43 39° SE 19:16:09 46° E 19:22:00 10° NNE
Cosmos 1606 Rocket 3.7 19:13:32 10° SSW 19:17:53 71° W 19:22:19 10° N
Terra 4.1 19:19:13 12° NE 19:19:13 12° NE 19:20:15 10° NNE
Cosmos 2279 Rocket 4.1 19:12:10 10° NNW 19:18:22 77° W 19:23:35 15° S
NOSS 3-1 (C) 3.6 19:13:53 10° S 19:22:41 23° ENE 19:25:14 10° NE
Cosmos 2333 4.5 19:16:15 10° NNW 19:21:51 50° NE 19:22:54 45° E
Resurs 01 Rocket 1.7 19:20:16 38° S 19:21:53 73° WSW 19:26:19 10° NNW
EO 1 Del DPAF 3.7 19:18:27 10° N 19:22:14 59° WNW 19:25:58 10° SSW
Cosmos 2360 Rocket 2.1 19:17:20 10° NNW 19:23:03 85° WSW 19:25:03 42° SSE
SL-08 RB Rocket 4.1 19:24:07 45° ENE 19:24:07 45° ENE 19:28:15 10° N
Cosmos 1726 Rocket 3.6 19:20:11 14° SSW 19:23:56 75° W 19:28:21 10° N
BREEZE-M DEB (TANK) 2.6 19:18:38 10° WSW 19:24:19 83° WSW 19:24:19 83° WSW
ATLAS 3B R/B 4.4 19:22:00 10° NW 19:27:11 22° N 19:31:31 13° NE
Abrixas rocket 3.6 19:25:00 10° W 19:26:59 35° W 19:26:59 35° W
Cosmos 1758 4.0 19:31:41 44° NNE 19:31:41 44° NNE 19:34:33 10° NNE
Cosmos 1092 Rocket 4.4 19:34:46 43° ENE 19:34:46 43° ENE 19:40:12 10° NNE
Lacrosse 5 2.6 19:29:31 10° NW 19:34:20 41° NNE 19:35:12 38° NE
SPOT 5 4.4 19:36:26 22° NE 19:36:26 22° NE 19:39:04 10° N
Cosmos 371 Rocket 3.7 19:31:15 10° SW 19:36:05 62° WNW 19:40:57 10° NNE
Cosmos 1607 4.1 19:31:52 10° NW 19:38:09 59° NE 19:39:17 52° E
SL-16 R/B 4.1 19:37:40 10° N 19:41:05 16° NE 19:41:56 15° NE
COSMOS 2428 2.8 19:35:28 10° NNW 19:41:10 59° ENE 19:41:35 58° ENE
Cosmos 1238 Rocket 4.4 19:38:14 10° N 19:39:27 22° N 19:39:27 22° N
Cosmos 1898 Rocket 4.2 19:41:57 10° NNW 19:46:14 39° NE 19:46:14 39° NE
Cosmos 2219 Rocket 2.4 19:43:16 10° NNW 19:48:52 54° NE 19:48:52 54° NE
SL-16 R/B 4.1 19:46:01 10° NW 19:50:30 24° WSW 19:54:49 10° SSW
Cosmos 1626 4.2 19:47:40 10° N 19:49:06 21° N 19:49:06 21° N
Cosmos 2228 4.0 19:50:47 30° SW 19:52:24 45° WNW 19:56:31 10° N
Thor Agena Rocket 3.6 19:47:33 10° NNE 19:52:52 80° WNW 19:54:23 48° SSW
Cosmos 2333 Rocket 2.5 19:47:57 10° NNW 19:53:27 54° NE 19:53:27 54° NE
Cosmos 2322 Rocket 4.2 19:51:36 10° NW 19:56:03 24° WSW 20:00:03 12° SSW
MetOp-B 4.0 20:00:26 88° NW 20:00:26 88° NW 20:05:47 10° NNW
Cosmos 2322 3.9 19:57:10 10° NW 20:02:44 61° WSW 20:03:20 57° SW
BREEZE-M R/B 3.2 19:54:11 10° WSW 20:03:48 78° SSW 20:03:48 78° SSW
Cosmos 1953 4.3 20:09:30 24° N 20:09:30 24° N 20:11:14 10° N
Cosmos 2058 Rocket 4.4 20:08:04 31° WSW 20:09:21 39° WNW 20:13:37 10° N
Cosmos 2237 Rocket 3.0 20:15:12 10° NNW 20:19:34 41° NNE 20:19:34 41° NNE
USA 267 3.4 20:18:43 28° NE 20:22:26 70° NNW 20:28:56 10° WSW
H-2A R/B 2.9 20:29:18 43° W 20:29:18 43° W 20:33:46 10° NNW
ERS-1 Rocket 3.8 20:32:47 47° NNW 20:32:47 47° NNW 20:36:23 10° NNW
ARGOS 4.3 20:33:20 36° WSW 20:33:46 37° W 20:38:46 10° NNW
Cosmos 1980 4.4 20:30:48 10° NNW 20:35:01 47° N 20:35:01 47° N
COSMOS 2455 4.3 20:36:01 10° WSW 20:41:27 34° NW 20:46:55 10° NNE
USA 229 DEB 4.5 20:42:33 10° WSW 20:49:03 48° NW 20:55:49 10° NE
USA 229 4.5 20:42:38 10° WSW 20:49:08 48° NW 20:55:55 10° NE
CENTAUR R/B 4.4 20:44:17 10° NW 20:50:29 28° NNE 20:54:02 21° NE
CZ-2C R/B 4.2 20:54:29 42° NNW 20:54:29 42° NNW 20:58:12 10° NNW
Terra 3.8 20:58:06 25° N 20:58:06 25° N 21:00:04 10° N
USA 234 4.2 20:59:25 36° WSW 20:59:25 36° WSW 21:04:32 10° WNW
SJ 16-02 4.0 21:02:37 10° NNW 21:03:39 17° N 21:03:39 17° N
NOSS 3-1 (C) 4.2 21:04:20 10° WSW 21:10:01 48° NW 21:16:35 10° NE
Lacrosse 5 4.0 21:12:34 10° WNW 21:14:23 22° WNW 21:14:23 22° WNW
ATLAS 3B R/B 3.6 21:13:24 10° NW 21:18:45 39° NNE 21:18:45 39° NNE
SL-16 R/B 3.8 21:20:48 10° NNW 21:23:48 31° N 21:23:48 31° N
Cosmos 2219 Rocket 4.1 21:27:45 10° NW 21:30:36 23° WNW 21:30:36 23° WNW
Cosmos 2333 Rocket 4.2 21:32:45 10° NW 21:35:28 23° WNW 21:35:28 23° WNW
USA 238 DEB 4.4 21:33:13 10° NW 21:38:26 50° NNW 21:38:26 50° NNW
USA 238 4.4 21:33:19 10° NW 21:38:32 50° NNW 21:38:32 50° NNW
Cosmos 2237 Rocket 4.4 21:59:34 10° NW 22:01:23 19° NW 22:01:23 19° NW
USA 267 4.3 22:06:07 40° NNW 22:06:07 40° NNW 22:11:05 10° WNW
CENTAUR R/B 3.8 22:35:19 10° NW 22:41:11 48° N 22:41:11 48° N
Cosmos 2297 Rocket 4.5 23:13:37 20° N 23:13:37 20° N 23:15:45 10° NNE
